EW4561 Weather Reports


time (UTC)temp
C
wind
direction
speed
KPH
gust
KPH
rain 1hr
cm
rain 24hr
cm
rain mn
cm
humidity
%
barometer
mb
20260509235407 15 51 1.6 6.4 0.00 0.00 0.00 75 1027.6
20260509234807 14 79 1.6 6.4 0.00 0.00 0.00 77 1027.6
20260509234208 13 149 0.0 4.8 0.00 0.00 0.00 78 1027.6
20260509233008 13 0 0.0 0.0 0.00 0.00 0.00 80 1027.6
20260509232407 12 0 0.0 0.0 0.00 0.00 0.00 81 1027.6
20260509231807 12 0 0.0 0.0 0.00 0.00 0.00 81 1027.6
20260509231207 12 150 0.0 4.8 0.00 0.00 0.00 82 1027.7
20260509230606 11 0 0.0 0.0 0.00 0.00 0.00 82 1027.6
20260509230008 11 0 0.0 0.0 0.00 0.00 0.00 83 1027.7
20260509225408 11 0 0.0 0.0 0.00 0.00 0.00 83 1027.7
20260509224807 11 0 0.0 0.0 0.00 0.00 0.00 83 1027.7
20260509224207 10 0 0.0 0.0 0.00 0.00 0.00 83 1027.7
20260509223007 10 0 0.0 0.0 0.00 0.00 0.00 83 1027.6
20260509221808 8 0 0.0 0.0 0.00 0.00 0.00 83 1027.5
20260509221207 8 0 0.0 0.0 0.00 0.00 0.00 82 1027.6
20260509220607 8 0 0.0 0.0 0.00 0.00 0.00 82 1027.5
20260509215407 7 0 0.0 0.0 0.00 0.00 0.00 82 1027.5
20260509214807 7 0 0.0 0.0 0.00 0.00 0.00 82 1027.5
20260509213607 7 0 0.0 0.0 0.00 0.00 0.00 82 1027.4
20260509213007 6 0 0.0 0.0 0.00 0.00 0.00 81 1027.3
20260509212408 6 0 0.0 0.0 0.00 0.00 0.00 81 1027.1
20260509211208 6 0 0.0 0.0 0.00 0.00 0.00 81 1027.0
20260509210606 6 0 0.0 0.0 0.00 0.00 0.00 81 1027.0
20260509210008 6 0 0.0 0.0 0.00 0.00 0.00 81 1026.9
20260509205408 6 0 0.0 0.0 0.00 0.00 0.00 81 1026.8
20260509204807 6 0 0.0 0.0 0.00 0.00 0.00 81 1026.8
20260509204207 6 0 0.0 0.0 0.00 0.00 0.00 81 1026.7
20260509203607 6 0 0.0 0.0 0.00 0.00 0.00 81 1026.6
20260509203008 7 0 0.0 0.0 0.00 0.00 0.00 81 1026.5
20260509201807 7 0 0.0 0.0 0.00 0.00 0.00 80 1026.3
20260509201207 7 0 0.0 0.0 0.00 0.00 0.00 80 1026.3
20260509200608 7 0 0.0 0.0 0.00 0.00 0.00 80 1026.2
20260509200008 7 0 0.0 0.0 0.00 0.00 0.00 80 1026.1
20260509195407 7 0 0.0 0.0 0.00 0.00 0.00 80 1026.1
20260509194807 7 0 0.0 0.0 0.00 0.00 0.00 80 1025.9
20260509194208 7 0 0.0 0.0 0.00 0.00 0.00 80 1025.9
20260509193606 7 0 0.0 0.0 0.00 0.00 0.00 80 1025.8
20260509193008 7 0 0.0 0.0 0.00 0.00 0.00 80 1025.7
20260509192407 7 0 0.0 0.0 0.00 0.00 0.00 80 1025.6
20260509191806 7 0 0.0 0.0 0.00 0.00 0.00 80 1025.7
20260509190607 7 0 0.0 0.0 0.00 0.00 0.00 80 1025.6
20260509190008 7 0 0.0 0.0 0.00 0.00 0.00 80 1025.5
20260509185406 7 0 0.0 0.0 0.00 0.00 0.00 80 1025.4
20260509184806 7 0 0.0 0.0 0.00 0.00 0.00 80 1025.4
20260509181806 7 0 0.0 0.0 0.00 0.00 0.00 80 1025.1
20260509181208 7 0 0.0 0.0 0.00 0.00 0.00 80 1025.2
20260509180607 7 0 0.0 0.0 0.00 0.00 0.00 79 1025.1
20260509180008 7 0 0.0 0.0 0.00 0.00 0.00 79 1025.1
20260509175407 7 0 0.0 0.0 0.00 0.00 0.00 80 1025.0
20260509174207 7 0 0.0 0.0 0.00 0.00 0.00 80 1024.9
20260509173606 8 0 0.0 0.0 0.00 0.00 0.00 79 1024.9
20260509173007 8 0 0.0 0.0 0.00 0.00 0.00 79 1024.8
20260509172408 8 0 0.0 0.0 0.00 0.00 0.00 79 1024.8
20260509171806 8 0 0.0 0.0 0.00 0.00 0.00 79 1024.8
20260509171208 8 0 0.0 0.0 0.00 0.00 0.00 79 1024.8
20260509170606 8 0 0.0 0.0 0.00 0.00 0.00 79 1024.8
20260509170006 8 0 0.0 0.0 0.00 0.00 0.00 79 1024.8
20260509165407 8 0 0.0 0.0 0.00 0.00 0.00 79 1024.8
20260509164807 8 0 0.0 0.0 0.00 0.00 0.00 79 1024.9
20260509164207 8 0 0.0 0.0 0.00 0.00 0.00 79 1024.8
20260509163607 8 0 0.0 0.0 0.00 0.00 0.00 79 1024.8
20260509163007 8 0 0.0 0.0 0.00 0.00 0.00 79 1024.8
20260509162407 8 0 0.0 0.0 0.00 0.00 0.00 79 1024.7
20260509161807 8 0 0.0 0.0 0.00 0.00 0.00 78 1024.8
20260509161208 8 0 0.0 0.0 0.00 0.00 0.00 78 1024.9
20260509160607 8 0 0.0 0.0 0.00 0.00 0.00 79 1024.8
20260509160008 8 0 0.0 0.0 0.00 0.00 0.00 78 1024.9
20260509155407 8 0 0.0 0.0 0.00 0.00 0.00 78 1024.8
20260509154806 9 0 0.0 0.0 0.00 0.00 0.00 78 1024.8
20260509154207 9 0 0.0 0.0 0.00 0.00 0.00 78 1024.9
20260509153007 9 0 0.0 0.0 0.00 0.00 0.00 78 1024.9
20260509151808 9 0 0.0 0.0 0.00 0.00 0.00 78 1024.9
20260509151207 9 0 0.0 0.0 0.00 0.00 0.00 78 1025.0
20260509150607 9 0 0.0 0.0 0.00 0.00 0.00 78 1025.0
20260509150007 10 0 0.0 0.0 0.00 0.00 0.00 78 1024.9
20260509145408 10 0 0.0 0.0 0.00 0.00 0.00 78 1024.9
20260509144207 10 0 0.0 0.0 0.00 0.00 0.00 78 1024.8
20260509143008 10 0 0.0 0.0 0.00 0.00 0.00 77 1024.8
20260509141207 10 0 0.0 0.0 0.00 0.00 0.00 77 1024.7
20260509140606 10 0 0.0 0.0 0.00 0.00 0.00 76 1024.8
20260509140008 10 0 0.0 0.0 0.00 0.00 0.00 76 1024.8
20260509135407 10 0 0.0 0.0 0.00 0.00 0.00 76 1024.8
20260509134808 10 0 0.0 0.0 0.00 0.00 0.00 76 1024.8
20260509134207 10 0 0.0 0.0 0.00 0.00 0.00 76 1024.8
20260509133007 10 0 0.0 0.0 0.00 0.00 0.00 76 1024.8
20260509132408 10 0 0.0 0.0 0.00 0.00 0.00 76 1024.8
20260509131806 10 0 0.0 0.0 0.00 0.00 0.00 76 1024.8
20260509131207 11 0 0.0 0.0 0.00 0.00 0.00 75 1024.8
20260509130607 11 0 0.0 0.0 0.00 0.00 0.00 75 1024.7
20260509130006 11 0 0.0 0.0 0.00 0.00 0.00 75 1024.7
20260509125407 11 0 0.0 0.0 0.00 0.00 0.00 75 1024.7
20260509124808 11 0 0.0 0.0 0.00 0.00 0.00 75 1024.7
20260509124207 11 0 0.0 0.0 0.00 0.00 0.00 75 1024.8
20260509123607 11 0 0.0 0.0 0.00 0.00 0.00 75 1024.8
20260509123007 11 0 0.0 0.0 0.00 0.00 0.00 74 1024.8
20260509122408 11 0 0.0 0.0 0.00 0.00 0.00 74 1024.8
20260509121807 11 0 0.0 0.0 0.00 0.00 0.00 74 1024.8
20260509121207 11 0 0.0 0.0 0.00 0.00 0.00 74 1024.9
20260509120007 11 0 0.0 0.0 0.00 0.00 0.00 73 1025.0
20260509115406 11 0 0.0 0.0 0.00 0.00 0.00 73 1025.0
20260509114207 12 0 0.0 0.0 0.00 0.00 0.00 72 1024.9
20260509113606 12 0 0.0 0.0 0.00 0.00 0.00 72 1024.9
20260509113008 12 0 0.0 0.0 0.00 0.00 0.00 72 1024.8
20260509112407 12 0 0.0 0.0 0.00 0.00 0.00 72 1024.8
20260509111807 12 0 0.0 0.0 0.00 0.00 0.00 72 1024.8
20260509111206 12 0 0.0 0.0 0.00 0.00 0.00 71 1024.8
20260509110607 12 0 0.0 0.0 0.00 0.00 0.00 71 1024.7
20260509105407 13 0 0.0 0.0 0.00 0.00 0.00 70 1024.7
20260509104806 13 0 0.0 0.0 0.00 0.00 0.00 70 1024.7
20260509104206 13 0 0.0 0.0 0.00 0.00 0.00 70 1024.6
20260509103606 13 0 0.0 0.0 0.00 0.00 0.00 69 1024.6
20260509103006 13 0 0.0 0.0 0.00 0.00 0.00 69 1024.6
20260509102407 13 0 0.0 0.0 0.00 0.00 0.00 69 1024.6
20260509101807 13 0 0.0 0.0 0.00 0.00 0.00 68 1024.5
20260509101207 13 0 0.0 0.0 0.00 0.00 0.00 68 1024.5
20260509100606 13 0 0.0 0.0 0.00 0.00 0.00 67 1024.4
20260509100007 14 0 0.0 0.0 0.00 0.00 0.00 67 1024.3
20260509095407 14 0 0.0 0.0 0.00 0.00 0.00 66 1024.3
20260509094806 14 0 0.0 0.0 0.00 0.00 0.00 66 1024.3
20260509094206 15 0 0.0 0.0 0.00 0.00 0.00 66 1024.3
20260509093606 15 0 0.0 0.0 0.00 0.00 0.00 65 1024.2
20260509093006 15 0 0.0 0.0 0.00 0.00 0.00 65 1024.1
20260509092407 15 0 0.0 0.0 0.00 0.00 0.00 64 1024.1
20260509091207 15 0 0.0 0.0 0.00 0.00 0.00 63 1023.9
20260509090606 16 0 0.0 0.0 0.00 0.00 0.00 63 1023.8
20260509090006 16 0 0.0 0.0 0.00 0.00 0.00 62 1023.7
20260509085407 16 0 0.0 0.0 0.00 0.00 0.00 62 1023.6
20260509084806 16 0 0.0 0.0 0.00 0.00 0.00 62 1023.5
20260509084206 16 0 0.0 0.0 0.00 0.00 0.00 61 1023.4
20260509083606 16 0 0.0 0.0 0.00 0.00 0.00 60 1023.3
20260509083007 17 0 0.0 0.0 0.00 0.00 0.00 60 1023.3
20260509082406 17 0 0.0 0.0 0.00 0.00 0.00 59 1023.2
20260509081206 17 0 0.0 0.0 0.00 0.00 0.00 58 1023.0
20260509080606 17 0 0.0 0.0 0.00 0.00 0.00 58 1022.9
20260509080007 17 112 0.0 4.8 0.00 0.00 0.00 57 1022.8
20260509075407 18 118 1.6 4.8 0.00 0.00 0.00 57 1022.7
20260509074806 18 119 3.2 14.5 0.00 0.00 0.00 57 1022.5
20260509074207 18 125 4.8 14.5 0.00 0.00 0.00 56 1022.4
20260509073607 18 125 3.2 8.0 0.00 0.00 0.00 56 1022.3
20260509073006 18 117 3.2 8.0 0.00 0.00 0.00 55 1022.2
20260509072407 18 121 4.8 9.7 0.00 0.00 0.00 55 1022.2
20260509071807 19 125 6.4 9.7 0.00 0.00 0.00 54 1022.0
20260509071207 19 123 6.4 16.1 0.00 0.00 0.00 54 1022.0
20260509070607 20 118 6.4 16.1 0.00 0.00 0.00 53 1021.9
20260509070006 20 119 6.4 14.5 0.00 0.00 0.00 53 1021.9
20260509064806 20 122 4.8 14.5 0.00 0.00 0.00 51 1021.7
20260509064207 21 122 4.8 9.7 0.00 0.00 0.00 51 1021.7
20260509063607 21 122 3.2 9.7 0.00 0.00 0.00 49 1021.6
20260509062407 22 98 0.0 1.6 0.00 0.00 0.00 45 1021.5
20260509061207 22 0 0.0 0.0 0.00 0.00 0.00 45 1021.3
20260509060607 22 0 0.0 0.0 0.00 0.00 0.00 44 1021.2
20260509060006 22 0 0.0 0.0 0.00 0.00 0.00 44 1021.2
20260509055407 22 0 0.0 0.0 0.00 0.00 0.00 45 1021.1
20260509054806 22 84 0.0 1.6 0.00 0.00 0.00 45 1021.1
20260509054206 22 104 1.6 4.8 0.00 0.00 0.00 44 1021.1
20260509053006 22 100 0.0 8.0 0.00 0.00 0.00 44 1021.0
20260509052407 22 63 1.6 4.8 0.00 0.00 0.00 43 1021.0
20260509051807 22 123 1.6 6.4 0.00 0.00 0.00 43 1021.0
20260509051206 23 151 1.6 8.0 0.00 0.00 0.00 42 1021.0
20260509050606 23 161 1.6 8.0 0.00 0.00 0.00 43 1021.0
20260509050006 23 252 0.0 6.4 0.00 0.00 0.00 42 1021.0
20260509045406 23 229 0.0 4.8 0.00 0.00 0.00 42 1021.0
20260509044206 23 131 1.6 4.8 0.00 0.00 0.00 43 1021.0
20260509043606 23 117 1.6 6.4 0.00 0.00 0.00 44 1021.0
20260509043007 22 118 0.0 6.4 0.00 0.00 0.00 44 1021.0
20260509041806 22 21 0.0 1.6 0.00 0.00 0.00 45 1021.0
20260509041206 22 255 0.0 4.8 0.00 0.00 0.00 45 1021.0
20260509040606 22 247 1.6 4.8 0.00 0.00 0.00 45 1021.0
20260509040007 22 184 1.6 6.4 0.00 0.00 0.00 45 1021.1
20260509035406 22 206 1.6 4.8 0.00 0.00 0.00 45 1021.1
20260509034807 22 172 1.6 6.4 0.00 0.00 0.00 45 1021.1
20260509034207 22 102 1.6 9.7 0.00 0.00 0.00 45 1021.1
20260509033606 22 100 1.6 9.7 0.00 0.00 0.00 45 1021.1
20260509033007 21 157 1.6 8.0 0.00 0.00 0.00 45 1021.2
20260509032406 21 162 1.6 8.0 0.00 0.00 0.00 45 1021.2
20260509031806 21 149 0.0 6.4 0.00 0.00 0.00 45 1021.3
20260509031205 21 145 0.0 6.4 0.00 0.00 0.00 45 1021.4
20260509030606 21 139 1.6 6.4 0.00 0.00 0.00 46 1021.4
20260509025406 21 154 3.2 9.7 0.00 0.00 0.00 45 1021.6
20260509024806 21 167 1.6 9.7 0.00 0.00 0.00 45 1021.7
20260509024206 21 177 1.6 8.0 0.00 0.00 0.00 46 1021.8
20260509023007 21 143 1.6 12.9 0.00 0.00 0.00 46 1022.0
20260509021806 21 132 1.6 8.0 0.00 0.00 0.00 48 1022.2
20260509021206 20 165 1.6 8.0 0.00 0.00 0.00 49 1022.3
20260509020607 20 296 1.6 8.0 0.00 0.00 0.00 49 1022.4
20260509020006 20 238 1.6 4.8 0.00 0.00 0.00 49 1022.5
20260509015407 20 246 1.6 8.0 0.00 0.00 0.00 50 1022.6
20260509014806 20 289 0.0 8.0 0.00 0.00 0.00 50 1022.7
20260509014207 20 201 0.0 4.8 0.00 0.00 0.00 51 1022.7
20260509013606 19 218 1.6 6.4 0.00 0.00 0.00 53 1022.8
20260509013007 19 156 1.6 6.4 0.00 0.00 0.00 53 1022.8
20260509012406 19 123 1.6 6.4 0.00 0.00 0.00 54 1022.9
20260509011807 19 103 1.6 6.4 0.00 0.00 0.00 55 1022.9
20260509011207 18 91 1.6 6.4 0.00 0.00 0.00 56 1023.0
20260509010606 18 5 1.6 8.0 0.00 0.00 0.00 56 1023.0
20260509010006 18 293 0.0 8.0 0.00 0.00 0.00 56 1023.1
20260509005407 18 264 0.0 4.8 0.00 0.00 0.00 57 1023.3
20260509004806 17 235 0.0 1.6 0.00 0.00 0.00 58 1023.4
20260509004207 17 275 0.0 4.8 0.00 0.00 0.00 59 1023.4
20260509003007 16 0 0.0 0.0 0.00 0.00 0.00 62 1023.5
20260509001806 16 347 1.6 6.4 0.00 0.00 0.00 63 1023.6
20260509001206 16 344 0.0 6.4 0.00 0.00 0.00 65 1023.6
20260509000606 15 103 0.0 6.4 0.00 0.00 0.00 67 1023.6